QPF
0.08 0.09 0.12 0.13 0.10 0.06 0.03 0.04 0.04 0.05 0.04 0.04 0.04 0.05 0.05 0.06 0.07 0.06 0.05 0.06 0.04 0.03 0.03 0.05 0.08 0.08 0.05 0.04 0.03 0.04 0.04 0.04 0.04 0.03 0.03 0.04 0.05 0.05 0.07 0.07 0.06 0.04 0.07
0.08 0.09 0.09 0.09 0.07 0.04 0.03 0.04 0.03 0.03 0.03 0.03 0.04 0.04 0.05 0.05 0.05 0.06 0.05 0.06 0.05 0.04 0.03 0.03 0.05 0.06 0.04 0.05 0.04 0.03 0.03 0.04 0.05 0.05 0.05 0.03 0.04 0.05 0.06 0.06 0.06 0.06 0.08
0.05 0.04 0.04 0.04 0.03 0.03 0.03 0.04 0.04 0.03 0.03 0.03 0.03 0.03 0.04 0.04 0.05 0.07 0.06 0.06 0.05 0.04 0.03 0.03 0.03 0.03 0.03 0.04 0.04 0.05 0.04 0.05 0.06 0.07 0.04 0.02 0.03 0.06 0.07 0.06 0.07 0.07 0.09
0.03 0.03 0.03 0.02 0.02 0.02 0.02 0.03 0.04 0.04 0.03 0.04 0.05 0.03 0.03 0.04 0.07 0.07 0.05 0.04 0.04 0.04 0.04 0.04 0.03 0.03 0.03 0.03 0.05 0.06 0.04 0.07 0.06 0.04 0.02 0.01 0.02 0.05 0.07 0.09 0.07 0.07 0.07
0.02 0.03 0.04 0.04 0.02 0.02 0.02 0.03 0.02 0.02 0.03 0.04 0.05 0.03 0.04 0.04 0.05 0.05 0.03 0.02 0.03 0.03 0.04 0.06 0.03 0.02 0.04 0.04 0.04 0.04 0.03 0.04 0.03 0.02 0.02 0.02 0.02 0.04 0.06 0.07 0.07 0.06 0.07
0.01 0.02 0.03 0.06 0.05 0.04 0.03 0.03 0.02 0.03 0.04 0.05 0.05 0.05 0.04 0.04 0.03 0.03 0.03 0.03 0.03 0.03 0.04 0.04 0.03 0.02 0.03 0.02 0.03 0.02 0.02 0.01 0.01 0.01 0.00 0.01 0.03 0.04 0.04 0.05 0.05 0.05 0.06
0.02 0.02 0.03 0.06 0.06 0.05 0.05 0.04 0.05 0.06 0.08 0.05 0.05 0.04 0.04 0.05 0.04 0.03 0.03 0.03 0.02 0.03 0.05 0.05 0.03 0.02 0.02 0.02 0.03 0.03 0.04 0.02 0.00 0.00 0.00 0.01 0.03 0.05 0.06 0.05 0.06 0.06 0.05
0.01 0.02 0.04 0.06 0.06 0.06 0.06 0.06 0.07 0.08 0.08 0.05 0.03 0.03 0.06 0.06 0.05 0.05 0.04 0.03 0.03 0.03 0.04 0.04 0.04 0.02 0.03 0.04 0.04 0.03 0.03 0.02 0.01 0.00 0.00 0.02 0.05 0.05 0.06 0.06 0.05 0.04 0.05
0.01 0.02 0.04 0.05 0.05 0.06 0.06 0.05 0.07 0.08 0.08 0.05 0.03 0.04 0.05 0.05 0.03 0.04 0.05 0.06 0.05 0.04 0.04 0.04 0.05 0.03 0.05 0.05 0.03 0.03 0.02 0.01 0.01 0.00 0.00 0.01 0.04 0.05 0.04 0.04 0.05 0.05 0.06
0.01 0.01 0.02 0.02 0.02 0.02 0.02 0.03 0.07 0.09 0.10 0.09 0.06 0.05 0.05 0.04 0.04 0.05 0.06 0.08 0.07 0.07 0.05 0.07 0.07 0.05 0.05 0.03 0.02 0.02 0.01 0.01 0.01 0.00 0.00 0.02 0.05 0.06 0.04 0.04 0.06 0.07 0.06
0.01 0.01 0.01 0.01 0.01 0.01 0.01 0.02 0.04 0.07 0.09 0.09 0.07 0.07 0.05 0.03 0.02 0.03 0.05 0.09 0.09 0.10 0.08 0.09 0.08 0.05 0.03 0.02 0.02 0.01 0.01 0.01 0.01 0.01 0.02 0.06 0.10 0.09 0.05 0.05 0.05 0.06 0.06
0.01 0.01 0.01 0.01 0.01 0.02 0.03 0.02 0.01 0.01 0.02 0.03 0.03 0.04 0.04 0.02 0.02 0.03 0.06 0.09 0.10 0.11 0.10 0.10 0.08 0.04 0.02 0.01 0.01 0.01 0.00 0.01 0.01 0.01 0.04 0.08 0.11 0.11 0.08 0.06 0.07 0.08 0.08
0.02 0.02 0.01 0.02 0.02 0.02 0.02 0.02 0.02 0.01 0.01 0.02 0.02 0.02 0.05 0.06 0.06 0.07 0.07 0.07 0.08 0.08 0.07 0.07 0.05 0.02 0.01 0.01 0.01 0.01 0.01 0.01 0.00 0.01 0.03 0.07 0.10 0.11 0.11 0.09 0.09 0.09 0.10
0.02 0.02 0.01 0.01 0.01 0.02 0.02 0.02 0.02 0.01 0.01 0.02 0.01 0.02 0.03 0.06 0.08 0.07 0.07 0.07 0.06 0.04 0.03 0.02 0.01 0.02 0.01 0.01 0.01 0.01 0.01 0.01 0.00 0.00 0.02 0.07 0.09 0.11 0.12 0.12 0.12 0.11 0.12
0.02 0.01 0.01 0.01 0.01 0.01 0.02 0.03 0.03 0.03 0.02 0.02 0.02 0.01 0.02 0.02 0.03 0.04 0.04 0.04 0.03 0.02 0.02 0.02 0.01 0.01 0.01 0.02 0.02 0.01 0.01 0.01 0.01 0.01 0.01 0.04 0.07 0.10 0.12 0.14 0.14 0.11 0.11
0.01 0.01 0.01 0.01 0.01 0.01 0.02 0.03 0.03 0.03 0.04 0.03 0.02 0.02 0.02 0.03 0.04 0.05 0.05 0.04 0.03 0.02 0.02 0.01 0.01 0.02 0.01 0.01 0.02 0.01 0.02 0.01 0.01 0.01 0.02 0.04 0.07 0.10 0.14 0.15 0.12 0.10 0.09
0.02 0.01 0.01 0.01 0.01 0.01 0.01 0.02 0.02 0.04 0.06 0.03 0.02 0.02 0.02 0.03 0.04 0.04 0.04 0.03 0.03 0.02 0.02 0.01 0.01 0.01 0.01 0.02 0.02 0.02 0.01 0.01 0.02 0.02 0.02 0.06 0.11 0.11 0.13 0.15 0.14 0.08 0.07
0.02 0.01 0.01 0.01 0.01 0.01 0.01 0.01 0.01 0.03 0.03 0.02 0.01 0.02 0.01 0.02 0.02 0.01 0.02 0.02 0.02 0.02 0.03 0.02 0.01 0.01 0.01 0.02 0.02 0.02 0.01 0.02 0.02 0.02 0.01 0.03 0.03 0.03 0.06 0.09 0.10 0.08 0.07
0.01 0.01 0.01 0.00 0.01 0.01 0.01 0.01 0.01 0.02 0.02 0.02 0.02 0.03 0.02 0.02 0.02 0.01 0.01 0.01 0.01 0.01 0.01 0.01 0.01 0.01 0.01 0.02 0.02 0.02 0.01 0.02 0.01 0.01 0.01 0.01 0.01 0.00 0.01 0.02 0.02 0.04 0.06
0.01 0.01 0.01 0.00 0.00 0.01 0.01 0.01 0.02 0.02 0.02 0.02 0.01 0.03 0.03 0.03 0.03 0.03 0.03 0.03 0.02 0.01 0.01 0.02 0.01 0.01 0.01 0.01 0.02 0.01 0.02 0.02 0.01 0.00 0.00 0.00 0.00 0.00 0.00 0.00 0.00 0.01 0.02
0.02 0.01 0.01 0.01 0.01 0.00 0.01 0.01 0.01 0.02 0.02 0.02 0.01 0.02 0.03 0.03 0.03 0.02 0.02 0.02 0.03 0.02 0.01 0.01 0.01 0.01 0.01 0.00 0.01 0.01 0.02 0.02 0.01 0.01 0.01 0.01 0.01 0.01 0.01 0.00 0.00 0.00 0.00
0.02 0.02 0.01 0.01 0.01 0.01 0.01 0.01 0.02 0.02 0.03 0.02 0.01 0.01 0.02 0.03 0.03 0.03 0.02 0.01 0.01 0.03 0.04 0.03 0.02 0.01 0.01 0.00 0.00 0.00 0.01 0.02 0.02 0.01 0.01 0.02 0.02 0.02 0.02 0.01 0.01 0.00 0.00
0.01 0.01 0.01 0.01 0.01 0.02 0.02 0.02 0.01 0.02 0.02 0.02 0.01 0.01 0.02 0.03 0.03 0.04 0.03 0.01 0.01 0.01 0.05 0.10 0.10 0.05 0.03 0.01 0.01 0.01 0.01 0.02 0.03 0.03 0.02 0.02 0.03 0.03 0.04 0.04 0.02 0.01 0.01
0.02 0.02 0.02 0.02 0.02 0.02 0.02 0.02 0.02 0.01 0.01 0.02 0.02 0.01 0.03 0.03 0.03 0.03 0.04 0.02 0.01 0.01 0.03 0.06 0.11 0.11 0.09 0.07 0.04 0.02 0.02 0.03 0.04 0.04 0.03 0.02 0.03 0.04 0.04 0.04 0.03 0.03 0.03
0.03 0.03 0.03 0.02 0.02 0.02 0.01 0.02 0.02 0.01 0.02 0.03 0.02 0.02 0.04 0.06 0.04 0.03 0.03 0.03 0.01 0.01 0.01 0.01 0.03 0.04 0.04 0.04 0.04 0.04 0.04 0.04 0.04 0.04 0.03 0.02 0.02 0.03 0.04 0.05 0.04 0.04 0.02
0.04 0.04 0.04 0.04 0.03 0.02 0.02 0.02 0.03 0.02 0.02 0.02 0.01 0.01 0.01 0.04 0.04 0.04 0.04 0.03 0.02 0.01 0.00 0.00 0.01 0.01 0.01 0.01 0.01 0.02 0.05 0.06 0.05 0.03 0.03 0.02 0.02 0.03 0.04 0.05 0.05 0.05 0.03
MSLP
1012.03 1011.46 1011.06 1010.87 1010.84 1010.91 1011.01 1011.09 1011.10 1011.06 1010.99 1010.95 1010.98 1011.10 1011.31 1011.57 1011.85 1012.10 1012.27 1012.37 1012.42 1012.44 1012.48 1012.55 1012.67 1012.83 1013.00 1013.15 1013.26 1013.30 1013.29 1013.23 1013.16 1013.10 1013.06 1013.06 1013.09 1013.14 1013.21 1013.28 1013.37 1013.47 1013.57
1011.90 1011.40 1011.08 1010.94 1010.94 1011.03 1011.13 1011.19 1011.19 1011.13 1011.07 1011.05 1011.11 1011.27 1011.53 1011.84 1012.15 1012.42 1012.60 1012.71 1012.75 1012.76 1012.78 1012.83 1012.93 1013.07 1013.23 1013.36 1013.45 1013.49 1013.48 1013.44 1013.39 1013.37 1013.37 1013.41 1013.48 1013.56 1013.65 1013.74 1013.83 1013.93 1014.05
1011.68 1011.28 1011.04 1010.97 1011.02 1011.14 1011.25 1011.31 1011.30 1011.24 1011.19 1011.18 1011.26 1011.45 1011.73 1012.05 1012.38 1012.65 1012.84 1012.93 1012.97 1012.97 1012.99 1013.04 1013.13 1013.26 1013.41 1013.53 1013.62 1013.66 1013.68 1013.67 1013.67 1013.70 1013.77 1013.86 1013.96 1014.07 1014.18 1014.28 1014.38 1014.48 1014.60
1011.43 1011.13 1010.98 1010.99 1011.11 1011.26 1011.39 1011.46 1011.46 1011.40 1011.34 1011.34 1011.42 1011.62 1011.89 1012.21 1012.53 1012.78 1012.96 1013.05 1013.09 1013.10 1013.13 1013.19 1013.30 1013.44 1013.59 1013.72 1013.82 1013.90 1013.95 1013.99 1014.06 1014.15 1014.27 1014.41 1014.55 1014.68 1014.80 1014.89 1014.99 1015.09 1015.22
1011.21 1011.01 1010.96 1011.05 1011.22 1011.42 1011.57 1011.65 1011.65 1011.59 1011.53 1011.52 1011.60 1011.78 1012.03 1012.33 1012.61 1012.85 1013.01 1013.10 1013.15 1013.19 1013.25 1013.34 1013.48 1013.65 1013.82 1013.98 1014.11 1014.22 1014.31 1014.42 1014.54 1014.70 1014.88 1015.06 1015.23 1015.37 1015.48 1015.56 1015.64 1015.74 1015.87
1011.08 1010.97 1011.00 1011.16 1011.39 1011.61 1011.78 1011.87 1011.86 1011.80 1011.74 1011.72 1011.78 1011.94 1012.16 1012.42 1012.68 1012.89 1013.04 1013.15 1013.22 1013.30 1013.40 1013.55 1013.73 1013.94 1014.15 1014.34 1014.50 1014.64 1014.78 1014.94 1015.12 1015.33 1015.55 1015.77 1015.96 1016.10 1016.19 1016.26 1016.32 1016.40 1016.52
1011.08 1011.04 1011.14 1011.34 1011.60 1011.84 1012.01 1012.09 1012.08 1012.01 1011.94 1011.92 1011.97 1012.11 1012.31 1012.54 1012.77 1012.97 1013.12 1013.24 1013.35 1013.47 1013.63 1013.84 1014.07 1014.32 1014.56 1014.78 1014.97 1015.14 1015.31 1015.50 1015.73 1015.98 1016.24 1016.48 1016.68 1016.82 1016.90 1016.94 1016.98 1017.04 1017.16
1011.21 1011.22 1011.35 1011.58 1011.84 1012.07 1012.23 1012.29 1012.27 1012.20 1012.13 1012.11 1012.16 1012.30 1012.49 1012.71 1012.93 1013.12 1013.28 1013.42 1013.57 1013.74 1013.96 1014.21 1014.49 1014.78 1015.04 1015.28 1015.48 1015.66 1015.85 1016.06 1016.31 1016.59 1016.87 1017.13 1017.34 1017.48 1017.55 1017.58 1017.61 1017.65 1017.75
1011.42 1011.47 1011.62 1011.86 1012.10 1012.30 1012.43 1012.46 1012.43 1012.36 1012.30 1012.30 1012.37 1012.52 1012.72 1012.95 1013.17 1013.37 1013.54 1013.71 1013.89 1014.10 1014.36 1014.65 1014.96 1015.27 1015.55 1015.79 1015.99 1016.17 1016.36 1016.58 1016.83 1017.12 1017.41 1017.68 1017.91 1018.06 1018.14 1018.17 1018.19 1018.23 1018.32
1011.65 1011.73 1011.90 1012.12 1012.34 1012.50 1012.59 1012.60 1012.55 1012.49 1012.46 1012.49 1012.60 1012.78 1013.01 1013.25 1013.49 1013.70 1013.89 1014.08 1014.28 1014.52 1014.80 1015.12 1015.45 1015.77 1016.05 1016.29 1016.48 1016.65 1016.83 1017.03 1017.28 1017.56 1017.86 1018.15 1018.39 1018.56 1018.67 1018.72 1018.75 1018.79 1018.88
1011.84 1011.96 1012.14 1012.35 1012.54 1012.67 1012.73 1012.71 1012.66 1012.61 1012.61 1012.68 1012.84 1013.06 1013.33 1013.61 1013.87 1014.10 1014.31 1014.51 1014.72 1014.97 1015.27 1015.60 1015.94 1016.26 1016.55 1016.78 1016.96 1017.12 1017.28 1017.46 1017.69 1017.97 1018.26 1018.56 1018.81 1019.02 1019.15 1019.24 1019.29 1019.35 1019.44
1011.93 1012.10 1012.31 1012.52 1012.70 1012.80 1012.84 1012.81 1012.77 1012.74 1012.78 1012.89 1013.10 1013.37 1013.68 1013.99 1014.27 1014.52 1014.74 1014.95 1015.18 1015.44 1015.74 1016.08 1016.42 1016.76 1017.05 1017.28 1017.47 1017.62 1017.77 1017.93 1018.14 1018.39 1018.67 1018.96 1019.23 1019.46 1019.63 1019.75 1019.84 1019.92 1020.02
1011.91 1012.13 1012.38 1012.61 1012.79 1012.90 1012.93 1012.92 1012.89 1012.89 1012.96 1013.13 1013.37 1013.69 1014.03 1014.37 1014.68 1014.95 1015.18 1015.40 1015.64 1015.90 1016.21 1016.56 1016.93 1017.28 1017.59 1017.85 1018.06 1018.22 1018.36 1018.51 1018.69 1018.91 1019.16 1019.43 1019.70 1019.93 1020.13 1020.29 1020.41 1020.51 1020.61
1011.76 1012.05 1012.35 1012.61 1012.82 1012.96 1013.02 1013.03 1013.03 1013.07 1013.18 1013.38 1013.66 1014.00 1014.36 1014.73 1015.06 1015.35 1015.60 1015.84 1016.09 1016.37 1016.70 1017.07 1017.47 1017.86 1018.21 1018.51 1018.75 1018.94 1019.09 1019.23 1019.39 1019.57 1019.78 1020.01 1020.24 1020.47 1020.67 1020.84 1020.98 1021.10 1021.21
1011.52 1011.86 1012.21 1012.54 1012.79 1012.98 1013.09 1013.15 1013.20 1013.28 1013.42 1013.63 1013.93 1014.28 1014.66 1015.04 1015.40 1015.71 1015.99 1016.26 1016.54 1016.86 1017.22 1017.62 1018.06 1018.50 1018.91 1019.27 1019.57 1019.80 1019.97 1020.12 1020.25 1020.38 1020.54 1020.71 1020.89 1021.08 1021.26 1021.42 1021.56 1021.68 1021.79
1011.19 1011.59 1012.00 1012.38 1012.70 1012.95 1013.13 1013.26 1013.37 1013.49 1013.65 1013.88 1014.18 1014.53 1014.91 1015.30 1015.67 1016.02 1016.34 1016.66 1016.98 1017.34 1017.74 1018.19 1018.68 1019.18 1019.66 1020.09 1020.46 1020.75 1020.96 1021.12 1021.24 1021.33 1021.43 1021.53 1021.64 1021.77 1021.89 1022.02 1022.14 1022.25 1022.34
1010.82 1011.25 1011.70 1012.15 1012.54 1012.88 1013.14 1013.35 1013.52 1013.68 1013.87 1014.10 1014.38 1014.72 1015.09 1015.48 1015.88 1016.27 1016.64 1017.01 1017.39 1017.81 1018.26 1018.76 1019.29 1019.85 1020.39 1020.90 1021.34 1021.70 1021.97 1022.17 1022.29 1022.36 1022.41 1022.44 1022.48 1022.53 1022.59 1022.66 1022.73 1022.81 1022.88
1010.41 1010.86 1011.35 1011.84 1012.31 1012.73 1013.09 1013.38 1013.62 1013.83 1014.04 1014.26 1014.53 1014.84 1015.20 1015.59 1016.01 1016.44 1016.87 1017.31 1017.75 1018.22 1018.73 1019.27 1019.84 1020.44 1021.04 1021.61 1022.13 1022.57 1022.92 1023.16 1023.32 1023.40 1023.42 1023.41 1023.38 1023.35 1023.34 1023.34 1023.36 1023.39 1023.43
1009.97 1010.42 1010.93 1011.47 1012.00 1012.51 1012.96 1013.34 1013.66 1013.91 1014.14 1014.36 1014.60 1014.88 1015.23 1015.62 1016.06 1016.53 1017.02 1017.53 1018.04 1018.56 1019.11 1019.68 1020.27 1020.90 1021.54 1022.16 1022.75 1023.27 1023.70 1024.03 1024.26 1024.38 1024.41 1024.38 1024.32 1024.24 1024.16 1024.10 1024.05 1024.03 1024.03
1009.47 1009.92 1010.44 1011.02 1011.62 1012.21 1012.75 1013.22 1013.61 1013.92 1014.16 1014.38 1014.60 1014.86 1015.18 1015.57 1016.03 1016.54 1017.10 1017.66 1018.23 1018.81 1019.38 1019.96 1020.57 1021.20 1021.85 1022.51 1023.15 1023.76 1024.29 1024.72 1025.04 1025.24 1025.33 1025.33 1025.27 1025.16 1025.04 1024.93 1024.83 1024.76 1024.70
1008.92 1009.37 1009.90 1010.51 1011.17 1011.83 1012.46 1013.02 1013.48 1013.84 1014.11 1014.33 1014.53 1014.77 1015.07 1015.46 1015.93 1016.49 1017.09 1017.72 1018.34 1018.95 1019.54 1020.12 1020.71 1021.33 1021.97 1022.65 1023.34 1024.01 1024.64 1025.19 1025.63 1025.95 1026.14 1026.21 1026.19 1026.10 1025.97 1025.83 1025.69 1025.57 1025.46
1008.31 1008.76 1009.31 1009.96 1010.67 1011.40 1012.11 1012.75 1013.29 1013.70 1014.00 1014.22 1014.42 1014.63 1014.92 1015.30 1015.80 1016.38 1017.03 1017.70 1018.37 1019.01 1019.61 1020.18 1020.74 1021.32 1021.95 1022.62 1023.33 1024.06 1024.78 1025.45 1026.02 1026.47 1026.79 1026.97 1027.03 1027.00 1026.90 1026.75 1026.59 1026.43 1026.29
1007.65 1008.13 1008.70 1009.38 1010.14 1010.93 1011.72 1012.43 1013.04 1013.50 1013.84 1014.08 1014.27 1014.48 1014.75 1015.14 1015.64 1016.25 1016.94 1017.65 1018.35 1019.01 1019.61 1020.17 1020.70 1021.24 1021.82 1022.47 1023.18 1023.95 1024.74 1025.50 1026.20 1026.79 1027.24 1027.55 1027.73 1027.77 1027.72 1027.61 1027.46 1027.29 1027.12
1006.99 1007.50 1008.11 1008.82 1009.62 1010.46 1011.31 1012.09 1012.75 1013.27 1013.65 1013.91 1014.11 1014.32 1014.59 1014.97 1015.48 1016.11 1016.83 1017.58 1018.31 1018.99 1019.60 1020.13 1020.63 1021.12 1021.65 1022.25 1022.94 1023.71 1024.53 1025.37 1026.17 1026.88 1027.46 1027.90 1028.19 1028.34 1028.38 1028.32 1028.20 1028.04 1027.87
1006.37 1006.93 1007.57 1008.31 1009.14 1010.02 1010.91 1011.73 1012.45 1013.01 1013.43 1013.72 1013.94 1014.16 1014.43 1014.82 1015.34 1015.99 1016.73 1017.51 1018.27 1018.97 1019.58 1020.10 1020.56 1021.00 1021.48 1022.02 1022.66 1023.40 1024.22 1025.08 1025.94 1026.73 1027.42 1027.98 1028.39 1028.65 1028.78 1028.80 1028.74 1028.62 1028.47
1005.87 1006.46 1007.13 1007.89 1008.73 1009.62 1010.53 1011.38 1012.13 1012.74 1013.19 1013.52 1013.76 1014.00 1014.29 1014.68 1015.22 1015.88 1016.64 1017.44 1018.22 1018.94 1019.56 1020.07 1020.51 1020.91 1021.32 1021.80 1022.37 1023.05 1023.83 1024.68 1025.55 1026.38 1027.14 1027.79 1028.30 1028.66 1028.89 1029.01 1029.03 1028.98 1028.88
Thickness
5763 5766 5767 5767 5767 5767 5767 5767 5767 5767 5767 5767 5767 5767 5766 5766 5766 5766 5766 5765 5765 5765 5765 5765 5765 5766 5765 5765 5765 5765 5765 5764 5764 5764 5763 5763 5762 5762 5762 5761 5761 5760 5760
5765 5766 5766 5766 5765 5765 5765 5765 5765 5765 5765 5764 5764 5764 5764 5764 5763 5763 5762 5762 5763 5763 5762 5763 5762 5762 5762 5762 5762 5762 5762 5762 5761 5761 5760 5759 5759 5759 5759 5759 5758 5758 5758
5764 5764 5764 5764 5763 5763 5763 5762 5762 5762 5762 5762 5761 5761 5761 5760 5760 5760 5759 5759 5759 5759 5759 5759 5759 5759 5759 5759 5759 5759 5759 5758 5758 5757 5756 5756 5756 5756 5756 5756 5756 5755 5755
5763 5762 5762 5761 5761 5761 5760 5760 5759 5759 5759 5758 5758 5758 5757 5757 5757 5756 5756 5755 5755 5756 5756 5756 5756 5755 5755 5755 5755 5755 5755 5754 5754 5753 5753 5753 5753 5753 5753 5753 5753 5753 5752
5761 5760 5759 5758 5758 5757 5757 5757 5756 5756 5755 5755 5755 5755 5754 5753 5753 5753 5752 5752 5752 5752 5752 5752 5752 5752 5752 5751 5751 5751 5751 5751 5750 5750 5749 5749 5749 5750 5750 5750 5750 5749 5749
5758 5757 5756 5755 5755 5754 5754 5754 5753 5753 5752 5752 5752 5751 5751 5750 5749 5749 5749 5748 5748 5748 5748 5748 5748 5748 5748 5748 5747 5747 5747 5747 5746 5746 5745 5745 5746 5746 5746 5746 5746 5746 5746
5755 5754 5753 5753 5752 5751 5751 5751 5751 5750 5750 5749 5749 5748 5747 5747 5746 5746 5745 5745 5745 5744 5744 5744 5744 5744 5744 5744 5744 5743 5743 5742 5742 5742 5742 5742 5742 5742 5743 5743 5743 5743 5742
5752 5751 5750 5750 5749 5749 5748 5748 5747 5747 5747 5746 5746 5745 5744 5744 5743 5742 5742 5741 5741 5741 5741 5740 5739 5740 5740 5740 5740 5739 5739 5738 5738 5738 5738 5738 5738 5739 5739 5739 5739 5739 5738
5749 5748 5747 5746 5746 5745 5745 5744 5744 5743 5743 5743 5742 5741 5741 5740 5739 5739 5738 5738 5738 5738 5737 5736 5735 5735 5736 5735 5735 5735 5734 5734 5734 5734 5734 5734 5735 5735 5735 5735 5735 5735 5734
5745 5744 5743 5742 5742 5741 5741 5740 5740 5739 5739 5738 5738 5737 5736 5736 5735 5735 5734 5734 5734 5734 5733 5732 5731 5731 5731 5731 5731 5731 5730 5730 5730 5730 5730 5730 5731 5731 5731 5731 5731 5731 5730
5741 5741 5740 5739 5739 5738 5737 5736 5736 5735 5734 5734 5733 5733 5732 5731 5730 5730 5730 5730 5730 5729 5729 5728 5727 5727 5727 5727 5727 5727 5726 5726 5726 5726 5726 5727 5727 5728 5728 5728 5727 5727 5726
5735 5736 5737 5736 5735 5734 5733 5732 5731 5731 5730 5729 5728 5727 5727 5726 5725 5725 5725 5725 5725 5724 5724 5723 5722 5722 5722 5722 5722 5722 5722 5721 5722 5722 5722 5723 5724 5724 5724 5724 5723 5723 5722
5732 5733 5733 5732 5731 5730 5729 5728 5727 5726 5725 5724 5724 5722 5721 5721 5720 5720 5719 5719 5719 5719 5718 5717 5717 5717 5717 5717 5717 5717 5717 5717 5717 5717 5718 5719 5720 5720 5720 5719 5719 5718 5718
5729 5729 5730 5729 5728 5726 5725 5724 5722 5722 5721 5720 5719 5718 5717 5715 5715 5714 5714 5714 5714 5713 5713 5712 5711 5711 5711 5711 5712 5712 5712 5712 5712 5712 5713 5714 5715 5715 5715 5715 5714 5714 5713
5726 5726 5726 5725 5724 5722 5721 5720 5718 5717 5716 5715 5714 5713 5712 5711 5709 5709 5708 5708 5708 5708 5707 5706 5706 5706 5706 5706 5706 5706 5706 5706 5706 5707 5707 5708 5709 5710 5710 5710 5710 5709 5709
5724 5723 5723 5722 5720 5718 5717 5716 5714 5713 5712 5711 5710 5709 5708 5707 5706 5704 5703 5703 5703 5702 5702 5701 5701 5701 5701 5701 5700 5701 5701 5701 5700 5701 5701 5702 5703 5704 5704 5705 5704 5704 5704
5722 5721 5720 5719 5717 5715 5714 5712 5711 5710 5709 5707 5706 5705 5704 5703 5701 5700 5699 5698 5698 5698 5697 5697 5696 5696 5696 5695 5695 5695 5695 5695 5695 5695 5696 5696 5696 5697 5698 5699 5699 5699 5699
5720 5718 5717 5717 5714 5712 5710 5709 5707 5706 5705 5704 5702 5702 5701 5699 5698 5696 5695 5694 5694 5693 5692 5691 5690 5689 5689 5688 5688 5688 5689 5689 5689 5689 5690 5690 5690 5690 5691 5692 5692 5693 5693
5718 5716 5714 5712 5710 5709 5707 5705 5704 5703 5701 5700 5699 5697 5696 5695 5694 5693 5691 5690 5689 5689 5688 5687 5685 5684 5683 5682 5682 5682 5682 5682 5682 5683 5683 5683 5683 5684 5684 5685 5685 5686 5687
5715 5714 5711 5709 5707 5705 5703 5701 5699 5698 5696 5695 5694 5693 5692 5691 5690 5689 5687 5686 5685 5684 5682 5681 5680 5679 5677 5677 5677 5675 5675 5675 5676 5676 5676 5676 5676 5677 5677 5678 5678 5679 5680
5712 5710 5708 5706 5704 5702 5699 5696 5693 5691 5690 5690 5689 5689 5688 5687 5686 5685 5683 5682 5681 5679 5678 5676 5675 5673 5671 5671 5670 5668 5668 5669 5669 5669 5669 5669 5670 5670 5671 5671 5671 5672 5673
5709 5707 5705 5703 5701 5699 5697 5694 5691 5688 5686 5685 5684 5684 5684 5683 5682 5681 5679 5677 5676 5675 5673 5672 5670 5667 5665 5666 5664 5661 5659 5659 5661 5662 5662 5663 5663 5664 5664 5665 5665 5666 5666
5705 5704 5703 5701 5699 5697 5694 5691 5687 5684 5682 5680 5679 5679 5679 5679 5678 5677 5675 5673 5672 5671 5669 5667 5666 5664 5661 5660 5661 5659 5655 5651 5651 5654 5655 5656 5656 5657 5658 5659 5659 5660 5661
5704 5702 5700 5698 5696 5694 5691 5688 5684 5679 5676 5675 5674 5674 5674 5674 5673 5672 5671 5669 5668 5666 5665 5664 5663 5661 5659 5656 5655 5655 5654 5652 5648 5646 5648 5649 5650 5651 5652 5653 5654 5654 5655
5702 5700 5698 5695 5692 5690 5688 5685 5681 5677 5673 5671 5670 5669 5669 5669 5668 5667 5666 5665 5663 5662 5661 5660 5659 5658 5656 5653 5651 5650 5648 5646 5645 5642 5640 5641 5643 5645 5646 5647 5648 5648 5649
5699 5696 5694 5691 5688 5686 5684 5681 5678 5673 5670 5667 5665 5664 5663 5663 5663 5662 5662 5661 5660 5658 5657 5656 5655 5654 5652 5650 5648 5647 5645 5643 5640 5638 5636 5635 5635 5638 5640 5641 5642 5643 5643